This demonstration page uses our WeatherBlox Daily Observations layout. Learn more.

Left ArrowRight Arrow

39.01783, -85.05884

Hourly Observations for July 2, 2021

Temp ( °F °C ) Dew Point ( °F °C ) Humidity (%) Winds ( mph kmh ) Pressure ( in mb ) Visibility ( mi km ) Precip ( " mm )
12:52 am 00:52 Mostly Clear with Mist and Fog 65 18.3 63 17.2 93 93 WNW 5 7 29.90 1012 5 8 0.00 0.00
1:52 am 01:52 Mostly Clear 68 20 63 17.2 84 84 NNW 10 17 29.89 1012 10 16 0.00 0.00
2:52 am 02:52 Clear 66 18.9 62 16.7 87 87 N 7 11 29.90 1013 10 16 0.00 0.00
3:52 am 03:52 Clear 66 18.9 62 16.7 87 87 N 8 13 29.89 1012 10 16 0.00 0.00
4:52 am 04:52 Partly Cloudy 64 17.8 61 16.1 90 90 N 8 13 29.91 1013 9 14 0.00 0.00
5:52 am 05:52 Partly Cloudy 64 17.8 61 16.1 90 90 NNE 8 13 29.92 1013 8 13 0.00 0.00
6:52 am 06:52 Partly Cloudy 65 18.3 59 15 81 81 NE 10 17 29.95 1014 10 16 0.00 0.00
7:52 am 07:52 Mostly Cloudy 65 18.3 57 13.9 76 76 NNE 9 15 29.96 1015 10 16 0.00 0.00
8:52 am 08:52 Mostly Cloudy 65 18.3 57 13.9 76 76 NE 7 11 29.98 1015 10 16 0.00 0.00
9:52 am 09:52 Partly Cloudy 68 20 56 13.3 65 65 NNE 10 17 29.99 1016 10 16 0.00 0.00
10:52 am 10:52 Mostly Cloudy 71 21.7 57 13.9 61 61 N 14 22 29.99 1016 10 16 0.00 0.00
11:52 am 11:52 Mostly Cloudy 72 22.2 55 12.8 55 55 N 12 19 29.99 1016 10 16 0.00 0.00
12:52 pm 12:52 Partly Cloudy 75 23.9 52 11.1 45 45 N 13 20 29.99 1016 10 16 0.00 0.00
1:52 pm 13:52 Partly Cloudy 75 23.9 52 11.1 45 45 NNW 14 22 29.98 1015 10 16 0.00 0.00
2:52 pm 14:52 Partly Cloudy 75 23.9 50 10 41 41 N 14 22 29.98 1015 10 16 0.00 0.00
3:52 pm 15:52 Partly Cloudy 74 23.3 51 10.6 45 45 N 15 24 29.98 1015 10 16 0.00 0.00
4:52 pm 16:52 Mostly Cloudy 75 23.9 51 10.6 43 43 N 14 22 29.96 1015 10 16 0.00 0.00
5:52 pm 17:52 Mostly Cloudy 74 23.3 51 10.6 45 45 N 12 19 29.96 1015 10 16 0.00 0.00
6:52 pm 18:52 Partly Cloudy 74 23.3 52 11.1 46 46 NNW 13 20 29.95 1014 10 16 0.00 0.00
7:52 pm 19:52 Partly Cloudy 73 22.8 51 10.6 46 46 N 12 19 29.96 1015 10 16 0.00 0.00
8:52 pm 20:52 Mostly Sunny 69 20.6 53 11.7 57 57 NNW 6 9 29.96 1015 10 16 0.00 0.00
9:52 pm 21:52 Mostly Clear 68 20 53 11.7 59 59 NNW 5 7 29.96 1015 10 16 0.00 0.00
10:52 pm 22:52 Partly Cloudy 63 17.2 53 11.7 70 70 NNW 3 6 29.97 1015 10 16 0.00 0.00
11:52 pm 23:52 Partly Cloudy 62 16.7 54 12.2 75 75 NW 5 7 29.97 1015 10 16 0.00 0.00

Powered by AerisWeather